Regional Weather Roundup
Issued by NWS

Home | Current Version | Previous Version | Graphics & Text | Print | Product List | Glossary On
Versions: 1 2 3 4 5 6 7 8 9 10 11 12 13 14 15 16 17 18 19 20 21 22 23 24 25 26 27 28 29 30 31 32 33 34 35 36 37 38 39 40 41 42 43 44 45 46 47 48 49 50
000
ASUS45 KABQ 031601
RWRNM
NEW MEXICO REGIONAL WEATHER ROUNDUP
NATIONAL WEATHER SERVICE ALBUQUERQUE NM
1000 AM MDT THU SEP 03 2015

NOTE: "FAIR" MEANS FEW OR NO CLOUDS BELOW 12,000 FEET AGL WITH NO
       SIGNIFICANT WEATHER OR OBSTRUCTIONS TO VISION.

      THIS PRODUCT IS RELEASED AS TWO VERSIONS.  ONE VERSION NEAR
      THE TOP OF THE HOUR CONTAINING PRELIMINARY DATA FROM ALBUQUERQUE
      AND OTHER STATIONS.  A FINAL VERSION WITH ADDITIONAL DATA IS
      ISSUED ABOUT 10 MINUTES AFTER THE HOUR.

NMZ501-503-504-510>518-031700-
NORTHWEST PLATEAU/NORTHCENTRAL MOUNTAINS

CITY           SKY/WX    TMP DP  RH WIND       PRES   REMARKS
FARMINGTON     MOSUNNY   70  50  49 SE9       30.17S
SANTA FE       PTSUNNY   67  47  48 SW7       30.22S
TAOS           PTSUNNY   63  43  48 CALM      30.29S

$$
NMZ402-403-502-505>509-031700-
WESTCENTRAL MOUNTAINS/SOUTHWEST MOUNTAINS

CITY           SKY/WX    TMP DP  RH WIND       PRES   REMARKS
GALLUP         SUNNY     69  49  48 SW7       30.25F
SILVER CITY      N/A     73  54  49 SW3       30.21R

$$
NMZ407-409-411-412-031700-
SOUTHERN DESERTS

CITY           SKY/WX    TMP DP  RH WIND       PRES   REMARKS
DEMING         CLOUDY    72  58  61 W5        30.12S
ALAMOGORDO     PTSUNNY   81  48  32 S3        30.10S
T OR C         MOSUNNY   75  55  49 N5        30.13S

$$
NMZ519>523-031700-
CENTRAL VALLEYS/CENTRAL HIGHLANDS

CITY           SKY/WX    TMP DP  RH WIND       PRES   REMARKS
ALBUQUERQUE    PTSUNNY   71  49  45 SW5       30.19S
DOUBLE EAGLE   MOSUNNY   72  52  49 CALM      30.22S
MORIARTY ARPT  FAIR      73  45  37 W8        30.23S
CLINES CORNERS CLOUDY    64  46  52 W15       30.25S
BELEN          FAIR      74  46  36 CALM      30.18S
SOCORRO        NOT AVBL

$$
NMZ524>526-539-540-031700-
SOUTHCENTRAL MOUNTAINS

CITY           SKY/WX    TMP DP  RH WIND       PRES   REMARKS
RUIDOSO        NOT AVBL

$$
NMZ527>531-031700-
NORTHEAST HIGHLANDS/NORTHEAST PLAINS

CITY           SKY/WX    TMP DP  RH WIND       PRES   REMARKS
LAS VEGAS      CLOUDY    68  47  46 SW9       30.21F
RATON          PTSUNNY   68  50  52 CALM      30.14S
CLAYTON        PTSUNNY   82  53  36 SW10      30.06R

$$
NMZ532>537-031700-
EASTCENTRAL PLAINS

CITY           SKY/WX    TMP DP  RH WIND       PRES   REMARKS
TUCUMCARI      PTSUNNY   82  51  34 SW17      30.03S
CANNON AFB     NOT AVBL
CLOVIS AIRPORT MOSUNNY   82  52  34 SW14      30.08S

$$
NMZ028-029-538-031700-
SOUTHEAST PLAINS

CITY           SKY/WX    TMP DP  RH WIND       PRES   REMARKS
ROSWELL        SUNNY     81  53  37 CALM      30.05F
ARTESIA        MOSUNNY   81  55  41 N6        30.05S
CARLSBAD       SUNNY     84  52  33 VRB3      30.02S
HOBBS          SUNNY     79  59  50 S14       30.08R


$$



USA.gov is the U.S. government's official web portal to all federal, state and local government web resources and services.